Weather History for KGSO - July, 2013

Change the Weather History Date:

Saturday, July 6, 2013

  Actual Average Record
Temperature  
Mean Temperature 78 °F 78 °F  
Max Temperature 86 °F 88 °F 100 °F (1977)
Min Temperature 70 °F 69 °F 53 °F (1933)
Degree Days  
Heating Degree Days 0 0  
Month to date heating degree days 0 0  
Since 1 June heating degree days 0 6  
Since 1 July heating degree days 0 0  
Cooling Degree Days 13 13  
Month to date cooling degree days 74 78  
Year to date cooling degree days 523 544  
Since 1 June cooling degree days 373 385  
Growing Degree Days 28 (Base 50)    
Moisture  
Dew Point 70 °F    
Average Humidity 78    
Maximum Humidity 100    
Minimum Humidity 55    
Precipitation  
Precipitation 0.13 in 0.12 in 1.42 in (1995)
Month to date precipitation 2.24 0.75  
Year to date precipitation 28.96 21.18  
Sea Level Pressure  
Sea Level Pressure 30.21 in    
Wind  
Wind Speed 7 mph (SSW)    
Max Wind Speed 22 mph    
Max Gust Speed 26 mph    
Visibility 10 miles    
Events Rain    
T = Trace of Precipitation, MM = Missing Value Source: NWS Daily Summary

Daily Weather History Graph

Daily Weather History Graph

Search for Another Location

Airport or City:

Trip Planner

Search our weather history database for the weather conditions in past years. The results will help you decide how hot, cold, wet, or windy it might be!

Date:

Astronomy

Jul. 06, 2013 Rise Set
Actual Time 6:09 AM EDT 8:39 PM EDT
Civil Twilight 5:39 AM EDT 9:09 PM EDT
Nautical Twilight 5:01 AM EDT 9:46 PM EDT
Astronomical Twilight 4:20 AM EDT 10:27 PM EDT
Moon 4:52 AM EDT 7:21 PM EDT
Length of Visible Light 15h 30m
Length of Day
14h 30m
Waning Crescent, 2% of the Moon is Illuminated
Jul 6
Waning Crescent
Jul 8
New
Jul 15
First Quarter
Jul 22
Full
Jul 29
Last Quarter

Hourly Weather History & Observations

Time (EDT) Temp. Heat Index Dew Point Humidity Pressure Visibility Wind Dir Wind Speed Gust Speed Precip Events Conditions
12:13 AM 73.4 °F - 71.6 °F 94% 30.24 in 10.0 mi South 3.5 mph - N/A   Mostly Cloudy
12:54 AM 73.0 °F - 71.1 °F 93% 30.21 in 10.0 mi SSW 4.6 mph - 0.00 in   Mostly Cloudy
1:30 AM 73.4 °F - 71.6 °F 94% 30.24 in 10.0 mi South 4.6 mph - N/A   Mostly Cloudy
1:37 AM 71.6 °F - 71.6 °F 100% 30.23 in 10.0 mi SSW 3.5 mph - N/A   Mostly Cloudy
1:54 AM 72.0 °F - 71.1 °F 97% 30.19 in 10.0 mi South 6.9 mph - N/A   Mostly Cloudy
2:03 AM 71.6 °F - 71.6 °F 100% 30.23 in 10.0 mi South 3.5 mph - N/A   Partly Cloudy
2:34 AM 71.6 °F - 71.6 °F 100% 30.23 in 10.0 mi SSW 5.8 mph - N/A   Mostly Cloudy
2:54 AM 72.0 °F - 71.1 °F 97% 30.20 in 10.0 mi SSW 5.8 mph - N/A   Mostly Cloudy
3:28 AM 71.6 °F - 69.8 °F 94% 30.23 in 10.0 mi Calm Calm - N/A   Scattered Clouds
3:54 AM 71.1 °F - 69.1 °F 93% 30.19 in 10.0 mi SSW 3.5 mph - N/A   Partly Cloudy
4:38 AM 71.6 °F - 69.8 °F 94% 30.23 in 10.0 mi South 4.6 mph - N/A   Mostly Cloudy
4:54 AM 70.0 °F - 69.1 °F 97% 30.20 in 3.0 mi South 5.8 mph - N/A   Mostly Cloudy
5:42 AM 69.8 °F - 69.8 °F 100% 30.24 in 10.0 mi South 3.5 mph - N/A   Mostly Cloudy
5:54 AM 71.1 °F - 69.1 °F 93% 30.21 in 10.0 mi South 5.8 mph - N/A   Mostly Cloudy
6:32 AM 71.6 °F - 69.8 °F 94% 30.25 in 10.0 mi South 5.8 mph - N/A   Overcast
6:54 AM 71.1 °F - 70.0 °F 96% 30.22 in 10.0 mi South 5.8 mph - N/A   Overcast
7:54 AM 72.0 °F - 70.0 °F 93% 30.24 in 10.0 mi SSW 6.9 mph - N/A   Overcast
8:54 AM 75.0 °F - 70.0 °F 84% 30.25 in 10.0 mi South 9.2 mph - N/A   Mostly Cloudy
9:01 AM 75.2 °F - 69.8 °F 83% 30.27 in 10.0 mi South 9.2 mph - N/A   Overcast
9:10 AM 75.2 °F - 69.8 °F 83% 30.27 in 10.0 mi SSW 6.9 mph - N/A   Mostly Cloudy
9:54 AM 75.0 °F - 69.1 °F 82% 30.24 in 10.0 mi WSW 6.9 mph - N/A   Mostly Cloudy
10:54 AM 75.9 °F - 69.1 °F 79% 30.25 in 10.0 mi SW 8.1 mph - 0.00 in   Mostly Cloudy
11:54 AM 81.0 °F 84.4 °F 70.0 °F 69% 30.24 in 10.0 mi WSW 9.2 mph - N/A   Mostly Cloudy
12:54 PM 81.0 °F 84.1 °F 69.1 °F 67% 30.22 in 10.0 mi Variable 4.6 mph - N/A   Mostly Cloudy
1:54 PM 82.9 °F 85.8 °F 68.0 °F 60% 30.19 in 10.0 mi SSW 8.1 mph - N/A   Mostly Cloudy
2:54 PM 82.9 °F 85.8 °F 68.0 °F 60% 30.17 in 10.0 mi SW 8.1 mph - N/A   Mostly Cloudy
3:54 PM 86.0 °F 89.4 °F 68.0 °F 55% 30.15 in 10.0 mi South 9.2 mph 17.3 mph N/A   Mostly Cloudy
4:54 PM 86.0 °F 90.1 °F 69.1 °F 57% 30.13 in 10.0 mi SSE 8.1 mph 16.1 mph N/A   Mostly Cloudy
5:54 PM 84.0 °F 87.0 °F 68.0 °F 58% 30.11 in 10.0 mi SSE 9.2 mph - N/A   Mostly Cloudy
6:54 PM 82.9 °F 86.5 °F 69.1 °F 63% 30.12 in 10.0 mi South 19.6 mph 26.5 mph N/A   Mostly Cloudy
7:54 PM 77.0 °F - 72.0 °F 84% 30.14 in 10.0 mi South 5.8 mph - 0.01 in   Mostly Cloudy
8:54 PM 75.9 °F - 73.0 °F 91% 30.14 in 10.0 mi WSW 3.5 mph - N/A   Mostly Cloudy
9:54 PM 75.9 °F - 71.1 °F 85% 30.18 in 10.0 mi WSW 3.5 mph - N/A   Overcast
10:54 PM 73.9 °F - 71.1 °F 91% 30.18 in 10.0 mi WSW 4.6 mph - 0.00 in Rain Light Rain
11:27 PM 73.4 °F - 71.6 °F 94% 30.22 in 7.0 mi SW 9.2 mph - 0.01 in Rain Light Rain
11:54 PM 73.0 °F - 71.1 °F 93% 30.18 in 10.0 mi SW 5.8 mph - 0.12 in Rain Light Rain